GW0327 Weather Reports


Display with metric or nautical units.
time (UTC)temp
F
wind
direction
speed
MPH
gust
MPH
rain 1hr
in
rain 24hr
in
rain mn
in
humidity
%
barometer
mb
20260509023014 51 329 3.0 7.0 0.00 0.00 0.00 79 1017.1
20260509021536 51 346 2.0 5.0 0.00 0.00 0.00 79 1017.1
20260509020018 52 360 4.0 11.0 0.00 0.00 0.00 77 1017.0
20260509014515 52 15 3.0 9.0 0.00 0.00 0.00 76 1017.1
20260509013028 52 13 5.0 8.0 0.00 0.00 0.00 76 1017.0
20260509011522 52 294 3.0 6.0 0.00 0.00 0.00 77 1017.1
20260509010013 52 355 8.0 10.0 0.00 0.00 0.00 77 1016.9
20260509004539 52 327 1.0 5.0 0.00 0.00 0.00 77 1016.9
20260509003021 53 21 4.0 11.0 0.00 0.00 0.00 75 1016.8
20260509001515 53 14 9.0 13.0 0.00 0.00 0.00 75 1016.9
20260509000027 53 16 4.0 9.0 0.00 0.00 0.00 75 1016.9
20260508234525 53 355 3.0 8.0 0.00 0.00 0.00 76 1017.0
20260508233017 52 355 2.0 4.0 0.00 0.00 0.00 77 1016.9
20260508231530 52 336 0.0 2.0 0.00 0.00 0.00 77 1016.9
20260508230024 53 13 1.0 5.0 0.00 0.00 0.00 76 1016.9
20260508224517 53 355 6.0 8.0 0.00 0.00 0.00 75 1017.0
20260508223042 53 32 2.0 5.0 0.00 0.00 0.00 74 1017.0
20260508221523 53 350 4.0 8.0 0.00 0.00 0.00 76 1017.0
20260508220020 53 15 1.0 5.0 0.00 0.00 0.00 76 1017.0
20260508214513 54 10 0.0 0.0 0.00 0.00 0.00 77 1016.9
20260508213026 54 9 0.0 4.0 0.00 0.00 0.00 74 1016.8
20260508211520 54 12 0.0 3.0 0.00 0.00 0.00 76 1016.9
20260508210031 54 12 0.0 3.0 0.00 0.00 0.00 77 1016.8
20260508204528 54 49 0.0 6.0 0.00 0.00 0.00 77 1016.7
20260508203026 54 355 1.0 5.0 0.00 0.00 0.00 78 1016.7
20260508201520 54 17 0.0 1.0 0.00 0.00 0.00 77 1016.8
20260508200032 55 17 0.0 1.0 0.00 0.00 0.00 76 1016.6
20260508194525 55 17 1.0 3.0 0.00 0.00 0.00 77 1016.4
20260508193020 55 17 0.0 4.0 0.00 0.00 0.00 77 1016.2
20260508191538 56 355 1.0 5.0 0.00 0.00 0.00 76 1015.9
20260508190027 56 360 3.0 5.0 0.00 0.00 0.00 76 1015.7
20260508184523 56 360 3.0 4.0 0.00 0.00 0.00 76 1015.5
20260508183032 57 355 0.0 2.0 0.00 0.00 0.00 75 1015.3
20260508181519 58 360 0.0 4.0 0.00 0.00 0.00 72 1015.2
20260508180036 59 262 0.0 1.0 0.00 0.00 0.00 74 1015.1
20260508174526 59 360 0.0 0.0 0.00 0.00 0.00 74 1015.1
20260508173021 60 263 0.0 1.0 0.00 0.00 0.00 72 1015.0
20260508171533 61 262 0.0 1.0 0.00 0.00 0.00 69 1015.0
20260508170026 62 262 0.0 0.0 0.00 0.00 0.00 69 1015.0
20260508164519 61 263 0.0 1.0 0.00 0.00 0.00 68 1014.9
20260508163036 62 264 0.0 0.0 0.00 0.00 0.00 67 1014.9
20260508161524 62 254 0.0 3.0 0.00 0.00 0.00 67 1014.8
20260508160021 62 326 0.0 6.0 0.00 0.00 0.00 65 1014.9
20260508154528 61 360 2.0 6.0 0.00 0.00 0.00 62 1014.9
20260508153023 62 279 4.0 8.0 0.00 0.00 0.00 63 1014.9
20260508151515 62 206 1.0 4.0 0.00 0.00 0.00 71 1014.9
20260508150049 62 215 0.0 4.0 0.00 0.00 0.00 70 1014.9
20260508144520 63 189 1.0 3.0 0.00 0.00 0.00 71 1015.0
20260508143047 64 115 2.0 6.0 0.00 0.00 0.00 70 1015.0
20260508141526 64 187 2.0 8.0 0.00 0.00 0.00 69 1015.1
20260508140024 63 194 2.0 9.0 0.00 0.00 0.00 69 1015.1
20260508134516 63 196 5.0 12.0 0.00 0.00 0.00 69 1015.2
20260508133029 65 213 4.0 12.0 0.00 0.00 0.00 64 1015.3
20260508131522 65 184 2.0 8.0 0.00 0.00 0.00 71 1015.4
20260508130018 64 132 3.0 12.0 0.00 0.00 0.00 69 1015.5
20260508124529 64 360 5.0 9.0 0.00 0.00 0.00 64 1015.5
20260508123023 63 140 3.0 9.0 0.00 0.00 0.00 63 1015.5
20260508121514 63 117 2.0 8.0 0.00 0.00 0.00 70 1015.6
20260508120026 63 225 3.0 7.0 0.00 0.00 0.00 67 1015.6
20260508114549 63 153 3.0 9.0 0.00 0.01 0.00 64 1015.7
20260508113031 64 360 7.0 10.0 0.00 0.01 0.00 68 1015.7
20260508111524 63 168 0.0 4.0 0.00 0.01 0.00 61 1015.7
20260508110014 63 165 5.0 8.0 0.00 0.01 0.00 68 1015.9
20260508104533 63 131 1.0 9.0 0.00 0.01 0.00 67 1016.1
20260508103024 61 179 2.0 8.0 0.00 0.01 0.00 72 1016.1
20260508101518 60 140 3.0 8.0 0.00 0.01 0.00 74 1016.0
20260508100034 61 103 3.0 8.0 0.00 0.01 0.00 72 1016.0
20260508094522 61 214 3.0 8.0 0.00 0.01 0.00 69 1016.1
20260508093019 60 207 4.0 7.0 0.00 0.01 0.00 72 1016.1
20260508091533 60 360 4.0 6.0 0.00 0.01 0.00 76 1016.2
20260508090029 61 182 2.0 9.0 0.00 0.01 0.00 71 1016.1
20260508084517 61 208 5.0 12.0 0.00 0.01 0.00 69 1016.0
20260508083033 59 182 6.0 12.0 0.00 0.01 0.00 70 1015.9
20260508081527 59 208 4.0 9.0 0.00 0.01 0.00 69 1015.8
20260508080040 59 213 3.0 8.0 0.00 0.01 0.00 72 1015.7
20260508074517 59 360 2.0 6.0 0.00 0.02 0.00 69 1015.7
20260508073030 59 130 1.0 3.0 0.00 0.02 0.00 69 1015.6
20260508071523 60 229 0.0 4.0 0.00 0.02 0.00 67 1015.5
20260508070022 59 13 0.0 6.0 0.00 0.02 0.00 71 1015.4
20260508064540 58 44 4.0 8.0 0.00 0.04 0.00 71 1015.2
20260508063019 56 80 0.0 2.0 0.00 0.04 0.00 75 1015.2
20260508061537 55 75 2.0 9.0 0.00 0.04 0.00 75 1015.1
20260508060026 54 34 6.0 13.0 0.00 0.04 0.00 77 1015.0
20260508054539 53 5 9.0 13.0 0.00 0.07 0.00 77 1015.0
20260508053019 51 360 7.0 11.0 0.00 0.07 0.00 80 1015.0
20260508051537 51 21 6.0 11.0 0.00 0.07 0.00 81 1014.9
20260508050024 50 355 9.0 11.0 0.00 0.07 0.00 82 1014.8
20260508044519 50 16 1.0 5.0 0.00 0.10 0.00 83 1014.8
20260508043032 49 5 0.0 5.0 0.00 0.10 0.00 84 1014.7
20260508041524 49 5 2.0 4.0 0.00 0.10 0.00 84 1014.7
20260508040035 49 5 2.0 4.0 0.00 0.10 0.00 84 1014.7
20260508034540 49 5 2.0 4.0 0.00 0.14 0.00 84 1014.7
20260508033025 49 5 3.0 6.0 0.00 0.14 0.00 84 1014.7
20260508031522 49 360 3.0 5.0 0.00 0.14 0.00 84 1014.8
20260508030033 50 340 2.0 4.0 0.00 0.14 0.00 83 1014.7
20260508024528 50 317 2.0 5.0 0.00 0.17 0.00 82 1014.7